Simultaneous Nadir Overpasses (SNOs) Predictions

Prediction of SNOs between AQUA and LANDSAT-8 Satellite Orbit:

Table of predicted SNOs for the next 14.0 days since TLE Epoch: 7/27/2024
Index Date (AQUA) Time (AQUA) Lat,Lon (AQUA) SZA (AQUA ) Date (LANDSAT-8) Time (LANDSAT-8) Lat,Lon (LANDSAT-8) SZA (LANDSAT-8 ) Distance(km) Time Diff (sec)
1 08/06/2024 17:34:38 -73.40, 100.64 123.08 08/06/2024 17:33:31 -73.39, 98.42 123.12 70.57 67
2 08/06/2024 18:24:02 73.50, -91.92 57.03 08/06/2024 18:22:54 73.51, -93.68 57.02 55.64 68
3 08/06/2024 19:13:28 -73.76, 75.19 122.72 08/06/2024 19:12:17 -73.76, 74.49 122.73 21.84 71
4 08/06/2024 20:02:52 73.86,-117.39 57.40 08/06/2024 20:01:40 73.88,-117.60 57.41 6.94 72
5 08/06/2024 20:52:14 -73.91, 50.17 122.55 08/06/2024 20:51:07 -73.91, 50.11 122.55 1.98 67
6 08/06/2024 21:41:36 73.91,-142.17 57.46 08/06/2024 21:40:32 73.93,-142.20 57.48 2.78 64
7 08/06/2024 22:30:57 -73.90, 25.51 122.54 08/06/2024 22:30:00 -73.91, 25.39 122.53 3.76 57
8 08/06/2024 23:20:20 73.95,-166.95 57.53 08/06/2024 23:19:25 73.93,-166.92 57.50 2.62 55
9 08/07/2024 00:09:41 -73.95, 0.72 122.47 08/07/2024 00:08:52 -73.97, 0.79 122.46 2.95 49
10 08/07/2024 00:59:03 73.95, 168.38 57.54 08/07/2024 00:58:18 73.93, 168.36 57.52 1.87 45
11 08/07/2024 01:48:24 -73.94, -23.94 122.46 08/07/2024 01:47:45 -73.97, -23.93 122.43 2.89 39
12 08/07/2024 02:37:46 73.94, 143.72 57.56 08/07/2024 02:37:11 73.93, 143.64 57.54 2.53 35
13 08/07/2024 03:27:08 -73.99, -48.72 122.39 08/07/2024 03:26:38 -73.97, -48.64 122.41 3.26 30
14 08/07/2024 04:16:30 73.99, 118.93 57.62 08/07/2024 04:16:03 73.99, 119.04 57.62 3.30 27
15 08/07/2024 05:05:51 -73.98, -73.39 122.38 08/07/2024 05:05:31 -73.97, -73.36 122.39 1.64 20
16 08/07/2024 05:55:12 73.98, 94.27 57.63 08/07/2024 05:54:55 73.99, 94.32 57.64 1.74 17
17 08/07/2024 06:44:33 -73.98, -98.06 122.37 08/07/2024 06:44:23 -73.97, -98.08 122.37 1.02 10
18 08/07/2024 07:33:55 73.98, 69.60 57.65 08/07/2024 07:33:48 73.99, 69.60 57.66 1.15 7
19 08/07/2024 08:23:16 -73.97,-122.72 122.35 08/07/2024 08:23:16 -73.97,-122.80 122.35 2.36 0
20 08/07/2024 09:12:38 73.97, 44.93 57.66 08/07/2024 09:12:41 73.99, 44.88 57.68 2.40 3
21 08/07/2024 10:02:00 -74.02,-147.51 122.29 08/07/2024 10:02:08 -74.03,-147.40 122.28 3.34 8
22 08/07/2024 10:51:22 74.02, 20.15 57.73 08/07/2024 10:51:34 73.99, 20.17 57.70 3.25 12
23 08/07/2024 11:40:43 -74.01,-172.17 122.27 08/07/2024 11:41:01 -74.03,-172.12 122.26 2.20 18
24 08/07/2024 12:30:05 74.02, -4.52 57.74 08/07/2024 12:30:27 73.99, -4.55 57.72 2.76 22
25 08/07/2024 13:19:26 -74.01, 163.16 122.26 08/07/2024 13:19:54 -74.03, 163.16 122.24 2.13 28
26 08/07/2024 14:08:48 74.01, -29.18 57.76 08/07/2024 14:09:20 73.99, -29.27 57.74 3.27 32
27 08/07/2024 14:58:09 -74.00, 138.49 122.24 08/07/2024 14:58:47 -74.03, 138.44 122.22 3.20 38
28 08/07/2024 15:47:32 74.06, -53.97 57.82 08/07/2024 15:48:12 74.05, -53.87 57.81 3.20 40
29 08/07/2024 16:36:53 -74.05, 113.71 122.18 08/07/2024 16:37:40 -74.03, 113.73 122.20 2.29 47
30 08/07/2024 17:26:15 74.05, -78.64 57.84 08/07/2024 17:27:05 74.05, -78.59 57.83 1.48 50
31 08/07/2024 18:15:36 -74.04, 89.04 122.16 08/07/2024 18:16:33 -74.03, 89.01 122.18 1.91 57
32 08/07/2024 19:04:58 74.05,-103.30 57.85 08/07/2024 19:05:58 74.05,-103.31 57.85 0.24 60
33 08/07/2024 19:54:19 -74.04, 64.38 122.15 08/07/2024 19:55:26 -74.03, 64.29 122.16 2.82 67
34 08/07/2024 20:43:41 74.04,-127.97 57.87 08/07/2024 20:44:51 74.05,-128.03 57.88 1.95 70
35 08/07/2024 21:33:05 -74.19, 39.35 121.98 08/07/2024 21:34:16 -74.19, 39.93 121.98 17.49 71
36 08/07/2024 22:22:30 74.35,-153.37 58.19 08/07/2024 22:23:39 74.31,-152.15 58.16 36.91 69
37 08/07/2024 23:11:56 -74.59, 13.69 121.56 08/07/2024 23:13:02 -74.55, 16.06 121.59 70.45 66
38 08/08/2024 00:01:20 74.70,-178.92 58.56 08/08/2024 00:02:25 74.67,-175.99 58.55 86.07 65



Historial Predications of SNOs between AQUA and LANDSAT-8
